This demonstration page uses our WeatherBlox Daily Observations layout. Learn more.

Left ArrowRight Arrow

39.29038, -76.61219

Hourly Observations for November 6, 2020

Temp ( °F °C ) Dew Point ( °F °C ) Humidity (%) Winds ( mph kmh ) Pressure ( in mb ) Visibility ( mi km ) Precip ( " mm )
12:54 am 00:54 Partly Cloudy 48 8.9 45 7.2 89 89 Calm 30.31 1026 10 16 0.00 0.00
1:54 am 01:54 Partly Cloudy 46 7.8 44 6.7 93 93 WNW 3 6 30.31 1027 10 16 0.00 0.00
2:54 am 02:54 Mostly Cloudy 47 8.3 44 6.7 90 90 Calm 30.31 1026 10 16 0.00 0.00
3:54 am 03:54 Mostly Cloudy 46 7.8 44 6.7 93 93 Calm 30.30 1026 10 16 0.00 0.00
4:54 am 04:54 Mostly Cloudy 46 7.8 44 6.7 93 93 WNW 3 6 30.30 1026 10 16 0.00 0.00
5:54 am 05:54 Cloudy 48 8.9 44 6.7 86 86 Calm 30.30 1026 10 16 0.00 0.00
6:54 am 06:54 Mostly Cloudy 47 8.3 45 7.2 93 93 Calm 30.31 1026 8 13 0.00 0.00
7:54 am 07:54 Mostly Cloudy 49 9.4 47 8.3 93 93 Calm 30.32 1027 9 14 0.00 0.00
8:54 am 08:54 Mostly Cloudy 53 11.7 50 10 89 89 WNW 3 6 30.33 1027 7 11 0.00 0.00
9:54 am 09:54 Mostly Cloudy 58 14.4 51 10.6 78 78 Calm 30.32 1027 10 16 0.00 0.00
10:54 am 10:54 Partly Cloudy 67 19.4 47 8.3 49 49 VRB 6 9 30.32 1027 10 16 0.00 0.00
11:54 am 11:54 Mostly Sunny 70 21.1 46 7.8 42 42 Calm 30.29 1026 10 16 0.00 0.00
12:54 pm 12:54 Mostly Sunny 73 22.8 44 6.7 35 35 S 5 7 30.26 1025 10 16 0.00 0.00
1:54 pm 13:54 Mostly Sunny 74 23.3 43 6.1 33 33 VRB 3 6 30.24 1024 10 16 0.00 0.00
2:54 pm 14:54 Mostly Sunny 74 23.3 44 6.7 34 34 Calm 30.23 1024 9 14 0.00 0.00
3:54 pm 15:54 Partly Cloudy 73 22.8 44 6.7 35 35 SW 6 9 30.24 1024 10 16 0.00 0.00
4:54 pm 16:54 Partly Cloudy 69 20.6 45 7.2 42 42 S 3 6 30.25 1024 10 16 0.00 0.00
5:54 pm 17:54 Partly Cloudy 60 15.6 47 8.3 62 62 SW 3 6 30.26 1025 10 16 0.00 0.00
6:54 pm 18:54 Mostly Clear 57 13.9 46 7.8 67 67 SW 3 6 30.26 1025 10 16 0.00 0.00
7:54 pm 19:54 Mostly Clear 52 11.1 46 7.8 80 80 W 3 6 30.26 1025 10 16 0.00 0.00
8:54 pm 20:54 Clear 52 11.1 45 7.2 77 77 Calm 30.27 1025 10 16 0.00 0.00
9:54 pm 21:54 Clear 50 10 45 7.2 83 83 Calm 30.27 1025 10 16 0.00 0.00
10:54 pm 22:54 Clear 48 8.9 44 6.7 86 86 Calm 30.27 1025 10 16 0.00 0.00
11:54 pm 23:54 Mostly Clear 47 8.3 43 6.1 86 86 W 3 6 30.27 1025 10 16 0.00 0.00

Powered by AerisWeather